Location: Rodanthe
(35.5920°N, 75.4670°W)
Time: 00:43:38
(UTC-04:00)

ISS - All Passes

Search period start: 22 April 2018 00:00
Search period end: 02 May 2018 00:00
Orbit: 403 x 406 km, 51.6° (Epoch: 22 April)

Date Brightness Start Highest point End Pass type
(mag) Time Alt. Az. Time Alt. Az. Time Alt. Az.
22 Apr - 08:29:35 10° SSW 08:32:38 39° SE 08:35:43 10° ENE daylight
22 Apr - 10:06:44 10° W 10:09:14 20° NNW 10:11:43 10° NNE daylight
22 Apr - 15:00:13 10° NNW 15:02:29 17° NNE 15:04:45 10° ENE daylight
22 Apr - 16:35:58 10° WNW 16:39:10 52° SW 16:42:22 10° SSE daylight
23 Apr - 07:38:10 10° S 07:40:32 19° SE 07:42:56 10° E daylight
23 Apr - 09:13:50 10° WSW 09:16:50 33° NW 09:19:51 10° NNE daylight
23 Apr - 14:08:50 10° N 14:09:58 11° NNE 14:11:07 10° NE daylight
23 Apr - 15:43:41 10° NW 15:46:58 70° NE 15:50:13 10° SE daylight
24 Apr - 08:21:17 10° SW 08:24:31 68° NW 08:27:47 10° NE daylight
24 Apr - 10:00:28 10° NW 10:01:31 11° NNW 10:02:34 10° N daylight
24 Apr - 14:51:36 10° NNW 14:54:39 34° NE 14:57:41 10° ESE daylight
24 Apr - 16:28:34 10° W 16:30:56 19° SW 16:33:18 10° S daylight
25 Apr - 07:29:07 10° SSW 07:32:17 53° SE 07:35:29 10° ENE daylight
25 Apr - 09:06:46 10° WNW 09:08:59 17° NNW 09:11:12 10° NNE daylight
25 Apr - 13:59:42 10° NNW 14:02:14 20° NNE 14:04:45 10° E daylight
25 Apr - 15:35:43 10° WNW 15:38:48 39° SW 15:41:53 10° SSE daylight
26 Apr - 06:37:25 10° S 06:40:07 24° SE 06:42:50 10° ENE daylight
26 Apr - 08:13:40 10° W 08:16:31 27° NW 08:19:23 10° NNE daylight
26 Apr - 13:08:05 10° N 13:09:43 13° NNE 13:11:21 10° NE daylight
26 Apr - 14:43:18 10° NW 14:46:35 88° SW 14:49:51 10° SE daylight
27 Apr - 05:46:45 10° SSE 05:48:01 12° SE 05:49:18 10° ESE visible
27 Apr - 07:20:57 10° WSW 07:24:08 52° NW 07:27:21 10° NE daylight
27 Apr - 13:51:07 10° NW 13:54:17 43° NE 13:57:25 10° ESE daylight
27 Apr - 15:28:35 10° W 15:30:27 14° SW 15:32:19 10° SSW daylight
28 Apr - 06:28:36 10° SW 06:31:50 71° SE 06:35:05 10° NE daylight
28 Apr - 08:06:44 10° WNW 08:08:38 14° NNW 08:10:31 10° N daylight
28 Apr - 12:59:07 10° NNW 13:01:51 24° NNE 13:04:34 10° E daylight
28 Apr - 14:35:25 10° WNW 14:38:19 29° SW 14:41:13 10° SSE daylight
29 Apr - 05:36:41 10° SSW 05:39:36 31° SE 05:42:33 10° ENE visible
29 Apr - 07:13:26 10° W 07:16:06 23° NNW 07:18:47 10° NNE daylight
29 Apr - 12:07:19 10° N 12:09:19 15° NNE 12:11:19 10° ENE daylight
29 Apr - 13:42:50 10° NW 13:46:05 67° SW 13:49:20 10° SE daylight
30 Apr - 04:45:27 10° SSE 04:47:26 15° SE 04:49:26 10° E visible
30 Apr - 06:20:33 10° WSW 06:23:39 40° NW 06:26:46 10° NE daylight
30 Apr - 11:16:26 10° NNE 11:16:41 10° NNE 11:16:57 10° NNE daylight
30 Apr - 12:50:32 10° NW 12:53:46 55° NE 12:56:59 10° ESE daylight
30 Apr - 14:28:49 10° WSW 14:29:51 11° SW 14:30:53 10° SW daylight
01 May - 05:28:02 10° SW 05:31:16 87° NW 05:34:33 10° NE visible
01 May - 07:06:40 10° NW 07:08:10 13° NNW 07:09:40 10° N daylight
01 May - 11:58:26 10° NNW 12:01:20 29° NE 12:04:14 10° E daylight
01 May - 13:35:03 10° WNW 13:37:42 23° SW 13:40:21 10° S daylight
